Hourly Data Report for April 11, 2004

SHERBROOKE A
QUEBEC

45°26'00.000" N
71°41'00.000" W
241.40 m
7028124
71610
YSC

Download Data

Hourly Data (April 2004)
Hourly Data Report for April 11, 2004
TIME
LST
Temp Definition
°C
Dew Point Definition
°C
Rel Hum Definition
%
Precip. Amount Definition
mm

Wind Dir Definition
10's deg

Wind Spd Definition
km/h
Visibility Definition
km
Stn Press Definition
kPa
Hmdx Definition


Wind Chill Definition


Weather Definition


00:00 -3.0 -8.9 64   25 6 15.0 98.71   -5  
01:00 -4.0 -8.9 69   25 4 15.0 98.72   -6  
02:00 -3.2 -8.1 69   22 6 15.0 98.73   -6  
03:00 -3.3 -7.6 72   22 6 15.0 98.79   -6  
04:00 -5.2 -8.0 81   21 6 15.0 98.81   -8  
05:00 -6.1 -8.3 84     0 15.0 98.84      
06:00 -4.2 -7.0 81   19 4 15.0 98.91   -6  
07:00 -1.9 -6.7 70   25 6 24.1 98.99   -4 Mainly Clear
08:00 0.0 -8.4 53   32 11 24.1 99.02   -4 Mainly Clear
09:00 0.3 -8.0 54   29 15 24.1 99.08     Mainly Clear
10:00 1.6 -7.6 50   29 15 24.1 99.09     Mostly Cloudy
11:00 2.0 -8.6 45   23 11 24.1 99.09     Mostly Cloudy
12:00 1.9 -8.9 45   31 9 24.1 99.10     Mostly Cloudy
13:00 2.6 -7.5 47   27 9 24.1 99.12     Mostly Cloudy
14:00 2.8 -8.9 42   30 15 24.1 99.11     Mostly Cloudy
15:00 2.9 -8.7 42   25 9 24.1 99.14     Mostly Cloudy
16:00 2.7 -9.0 42   29 9 24.1 99.17     Mostly Cloudy
17:00 2.6 -8.7 43   29 7 15.0 99.23      
18:00 1.0 -8.7 48   29 6 15.0 99.31      
19:00 -0.6 -8.5 55   34 4 15.0 99.36   -2  
20:00 -1.7 -7.4 65   36 4 15.0 99.44   -3  
21:00 -3.3 -7.4 73   13 4 15.0 99.45   -5  
22:00 -4.5 -7.2 81     0 15.0 99.47      
23:00 -4.4 -6.8 83   13 6 15.0 99.47   -7  

Notes on Data Quality.

Legend

  • E = Estimated
  • M = Missing
  • NA = Not Available*
  • [empty] = Indicates an unobserved value
Date modified: